User: anonymous   Login
Location: Anglesey
(53.1800°N, 4.2200°W)
Time: 08:51:27
(UTC+01:00)
Language:

N. Korean satellite - Orbit

View from above orbital plane
View from above orbital plane
View from above satellite
View from above satellite

Ground track
Ground track

The orbit data is extracted from the following two-line orbital elements,

1 39026U 12072A   17296.95442839 +.00002284 +00000-0 +89519-4 0  9993
2 39026 097.2192 310.4006 0041944 081.4470 279.1519 15.25950291269563
Epoch (UTC): 23 October 2017 22:54:22
Eccentricity: 0.0041944
inclination: 97.2192°
perigee height: 459 km
apogee height: 517 km
right ascension of ascending node: 310.4006°
argument of perigee: 81.4470°
revolutions per day: 15.25950291
mean anomaly at epoch: 279.1519°
orbit number at epoch: 26956

The dashed part of the orbit path shows where the satellite is in the earth's shadow,  

DLR